#timestamp,LO_Frequency,Hit,StdDev 
1710342015.4,286047001.2,N
1710342035.3,286046995.4,N
1710342055.1,286046995.0,N
1710342056.0,286046995.0,N
1710342075.8,286047011.9,N
1710342095.7,286046994.4,N
1710342115.5,286046987.0,N
1710342135.3,286046984.2,N
1710342155.2,286046979.0,Y
1710342175.0,286046977.7,P
1710342175.9,286046977.7,N
1710342195.8,286046980.0,N
1710342215.6,286046973.4,Y
1710342235.4,286046994.7,P
1710342255.3,286046993.8,N
1710342275.1,286046993.7,N
1710342295.9,286046994.9,N
1710342315.7,286046995.9,N
1710342335.5,286046995.1,N
1710342355.4,286046996.6,N
1710342375.2,286046997.3,N
1710342395.0,286046994.1,N
1710342395.9,286046994.1,N
1710342415.8,286046992.7,N
1710342435.6,286046992.8,N
1710342455.5,286046989.2,Y
1710342475.3,286046991.8,P
1710342495.1,286046995.7,P
1710342515.9,286047000.1,N
1710342535.7,286047009.4,Y
1710342555.5,286047015.9,P
1710342575.4,286047012.7,N
1710342595.2,286047012.8,N
1710342615.1,286047016.8,N
1710342616.0,286047016.8,N
1710342635.8,286047014.0,N
1710342655.6,286047016.7,N
1710342675.5,286047017.3,N
1710342695.3,286047018.6,N
1710342715.1,286047009.1,N
1710342735.9,286047004.9,N
1710342755.7,286047005.0,N
1710342775.6,286047006.2,N
1710342795.4,286047012.6,N
1710342815.2,286047010.9,N
1710342835.1,286047018.7,Y
1710342836.0,286047018.7,P
1710342855.8,286047013.8,P
1710342875.7,286047023.1,P
1710342895.5,286047025.1,Y
1710342915.3,286047006.4,P
1710342935.2,286047005.0,N
1710342955.0,286047011.6,N
1710342955.9,286047011.6,N
1710342975.7,286047013.1,Y
1710342995.6,286047002.4,P
1710343015.4,286046988.9,N
1710343035.3,286046991.1,N
1710343055.1,286046987.3,N
1710343056.0,286046987.3,N
1710343075.8,286046985.2,N
1710343095.7,286046983.6,N
1710343115.5,286046982.4,N
1710343135.3,286046984.1,N
1710343155.2,286046983.1,N
1710343175.0,286046975.5,N
1710343175.9,286046975.5,N
1710343195.8,286046978.7,N
1710343215.6,286046982.0,N
1710343235.4,286046977.0,N
1710343255.3,286046974.3,N
1710343275.1,286046976.5,N
1710343295.9,286046978.6,N
1710343315.7,286046985.5,N
1710343335.5,286046983.8,N
1710343355.4,286046986.4,N
1710343375.2,286046992.9,N
1710343395.0,286046996.8,N
1710343395.9,286046996.8,N
1710343415.8,286047002.3,N
1710343435.6,286047007.9,N
1710343455.5,286047011.1,N
1710343475.3,286047010.7,N
1710343495.1,286047005.4,N
1710343515.9,286047005.4,N
1710343535.7,286047008.2,N
1710343555.6,286047012.5,N
1710343575.4,286047009.5,N
1710343595.2,286047010.3,N
1710343615.1,286047012.4,N
1710343616.0,286047012.4,N
1710343635.8,286047014.3,N
1710343655.6,286047015.9,N
1710343675.5,286047019.7,N
1710343695.3,286047027.6,N
1710343715.2,286047028.2,N
1710343735.0,286047025.6,N
1710343735.9,286047025.6,N
1710343755.7,286047034.6,N
1710343775.6,286047040.0,N
1710343795.4,286047045.1,N
1710343815.3,286047052.4,Y
1710343835.1,286047042.4,P
1710343855.8,286047038.8,N
1710343875.7,286047039.2,N
1710343895.5,286047040.7,Y
1710343915.4,286047011.0,P
1710343935.2,286047013.5,N
1710343955.0,286047013.8,N
1710343955.9,286047013.8,N
1710343975.8,286047011.9,N
1710343995.6,286047011.7,N
1710344015.5,286047012.8,N
1710344035.3,286047014.6,N
1710344055.1,286047015.8,N
1710344075.9,286047017.9,Y
1710344095.7,286047005.3,P
1710344115.5,286047004.5,N
1710344135.4,286047002.2,N
1710344155.2,286047007.6,N
1710344175.1,286047005.5,N
1710344176.0,286047005.5,N
1710344195.8,286047004.7,N
1710344215.6,286047001.7,N
1710344235.5,286047000.1,N
1710344255.3,286047000.5,N
1710344275.1,286046997.0,N
1710344295.9,286046992.1,N
1710344315.7,286046995.5,N
1710344335.6,286046998.5,N
1710344355.4,286046997.3,N
1710344375.2,286046999.6,N
1710344395.1,286046998.8,N
1710344396.0,286046998.8,N
1710344415.8,286047000.3,N
1710344435.6,286047003.6,N
1710344455.5,286047002.1,N
1710344475.3,286047002.5,N
1710344495.2,286046996.7,N
1710344515.9,286046999.4,N
1710344535.7,286047002.3,N
1710344555.6,286046999.7,N
1710344575.4,286047007.0,N
1710344595.2,286047012.9,N
1710344615.1,286047015.3,Y
1710344616.0,286047015.3,P
1710344635.8,286047014.3,N
1710344655.7,286047020.4,P
1710344675.5,286047023.6,Y
1710344695.3,286047012.4,P
1710344715.2,286047008.9,P
1710344735.0,286047000.7,N
1710344735.9,286047000.7,N
1710344755.8,286046986.9,N
1710344775.6,286046979.3,N
1710344795.4,286046980.8,N
1710344815.3,286046981.4,N
1710344835.1,286046980.0,N
1710344855.8,286046979.1,N
1710344875.7,286046975.8,N
1710344895.5,286046968.4,N
1710344915.4,286046969.0,N
1710344935.2,286046964.6,N
1710344955.0,286046967.5,N
1710344955.9,286046967.5,N
1710344975.8,286046962.5,N
1710344995.6,286046955.6,N
1710345015.4,286046950.5,N
1710345035.3,286046942.5,Y
1710345055.1,286046961.0,P
1710345075.9,286046960.7,P
1710345095.7,286046956.9,P
1710345115.5,286046959.8,Y
1710345135.4,286046993.9,P
1710345155.2,286046999.6,N
1710345175.1,286047004.6,N
1710345176.0,286047004.6,N
1710345195.8,286047006.7,N
1710345215.6,286047013.6,N
1710345235.5,286047015.5,N
1710345255.3,286047014.5,N
1710345275.1,286047017.3,N
1710345295.9,286047021.6,N
1710345315.7,286047012.4,N
1710345335.6,286047007.3,N
1710345355.4,286047002.2,N
1710345375.2,286046994.2,N
1710345395.1,286046989.0,N
1710345396.0,286046989.0,N
1710345415.8,286046985.4,N
1710345435.6,286046982.3,N
1710345455.5,286046978.8,N
1710345475.3,286046975.6,N
1710345495.2,286046972.1,N
1710345515.9,286046969.8,N
1710345535.7,286046969.0,N
1710345555.6,286046970.0,N
1710345575.4,286046970.7,N
1710345595.2,286046972.1,N
